Weather Roundup
Issued by NWS Springfield, MO

Home | Current Version | Previous Version | Text Only | Print | Product List | Glossary On
Versions: 1 2 3 4 5 6 7 8 9 10 11 12 13 14 15 16 17 18 19 20 21 22 23 24 25 26 27 28 29 30 31 32 33 34 35 36 37 38 39 40 41 42 43 44 45 46 47 48 49 50
000
NZUS99 KSGF 281307
HRRSGF

HOURLY WEATHER
NATIONAL WEATHER SERVICE SPRINGFIELD MO
800 AM CDT MON JUL 28 2014

......SGF CWA......

CITY           SKY/WX    TMP DP  RH WIND       PRES   REMARKS
SPRINGFIELD    SUNNY     68  58  70 N7        30.17R
JOPLIN         MOSUNNY   67  60  78 N6        30.19R
WEST PLAINS    SUNNY     67  58  72 NW8       30.15R
ROLLA          SUNNY     64  57  78 NW9       30.11R
OSAGE BEACH    SUNNY     66  55  68 N6        30.15R
BRANSON        MOSUNNY   68  57  68 NW5       30.18R

......SURROUNDING SGF CWA......

CITY           SKY/WX    TMP DP  RH WIND       PRES   REMARKS
CHANUTE        MOSUNNY   66  59  78 N6        30.21R
PARSONS        MOSUNNY   66  60  81 N3        30.21R
COFFEYVILLE    SUNNY     66  61  84 NW3       30.20R HAZE
EMPORIA        MOSUNNY   66  58  75 N8        30.23R
GROVE OK       SUNNY     68  61  77 CALM      30.19S
ROGERS AR      SUNNY     67  59  75 NE7       30.20R
SILOAM SPRINGS SUNNY     68  55  64 CALM      30.20R
HARRISON AR    SUNNY     67  60  78 NW6       30.18R
NEAR YELLVILLE SUNNY     70  61  73 NW3       30.15R

......KANSAS AND MISSOURI......

CITY           SKY/WX    TMP DP  RH WIND       PRES   REMARKS
KANSAS CTY INT MOSUNNY   64  58  80 N8        30.20R
DOWNTOWN KC    SUNNY     67  58  72 N7        30.19R
COLUMBIA       SUNNY     66  60  81 N13       30.13R
SEDALIA        SUNNY     65  58  78 NW7       30.17R
ST JOSEPH      SUNNY     63  59  87 N7        30.21R
ST LOUIS       MOSUNNY   70  61  73 NW12      30.08R
SPIRIT OF STL  MOSUNNY   68  60  75 NW8       30.08R
KIRKSVILLE     CLOUDY    64  60  87 N10       30.16R
WICHITA        MOSUNNY   70  58  65 NE6       30.24R
TOPEKA         SUNNY     67  58  72 N7        30.23R
OLATHE         SUNNY     65  58  78 N8        30.20R

......TENNESSEE......

CITY           SKY/WX    TMP DP  RH WIND       PRES   REMARKS
MEMPHIS        MOSUNNY   77  61  57 NE8       30.07R
NASHVILLE      SUNNY     73  61  65 NW8       30.01R

......ARKANSAS.......

CITY           SKY/WX    TMP DP  RH WIND       PRES   REMARKS
FAYETTEVILLE   SUNNY     68  63  84 CALM      30.19R
FT SMITH       SUNNY     77  64  64 NE6       30.14R
LITTLE ROCK    MOSUNNY   77  61  57 N10       30.11R

......OKLAHOMA.......

CITY           SKY/WX    TMP DP  RH WIND       PRES   REMARKS
TULSA          PTSUNNY   70  63  78 N5        30.18R
PONCA CITY     MOSUNNY   66  61  84 N3        30.21R
MCALESTER      MOSUNNY   76  66  71 NE7       30.16R
OKLAHOMA CITY  PTSUNNY   76  60  57 E10       30.20R

......IOWA............

CITY           SKY/WX    TMP DP  RH WIND       PRES   REMARKS
DES MOINES     MOSUNNY   65  57  75 NE9       30.18R
QUAD CITIES    SUNNY     64  53  67 N8        30.11R

......ILLINOIS........

CITY           SKY/WX    TMP DP  RH WIND       PRES   REMARKS
QUINCY         PTSUNNY   65  61  87 N7        30.11R
CHICAGO        MOSUNNY   61  47  59 N17G23    30.04R



USA.gov is the U.S. government's official web portal to all federal, state and local government web resources and services.